Regional Weather Roundup
Issued by NWS

Home | Current Version | Previous Version | Graphics & Text | Print | Product List | Glossary On
Versions: 1 2 3 4 5 6 7 8 9 10 11 12 13 14 15 16 17 18 19 20 21 22 23 24 25 26 27 28 29 30 31 32 33 34 35 36 37 38 39 40 41 42 43 44 45 46 47 48 49 50
000
ASUS45 KABQ 010101
RWRNM
NEW MEXICO REGIONAL WEATHER ROUNDUP
NATIONAL WEATHER SERVICE ALBUQUERQUE NM
700 PM MDT FRI SEP 30 2016

NOTE: "FAIR" MEANS FEW OR NO CLOUDS BELOW 12,000 FEET AGL WITH NO
       SIGNIFICANT WEATHER OR OBSTRUCTIONS TO VISION.

      THIS PRODUCT IS RELEASED AS TWO VERSIONS.  ONE VERSION NEAR
      THE TOP OF THE HOUR CONTAINING PRELIMINARY DATA FROM ALBUQUERQUE
      AND OTHER STATIONS.  A FINAL VERSION WITH ADDITIONAL DATA IS
      ISSUED ABOUT 10 MINUTES AFTER THE HOUR.

NMZ501-503-504-510>518-010200-
NORTHWEST PLATEAU/NORTHCENTRAL MOUNTAINS

CITY           SKY/WX    TMP DP  RH WIND       PRES   REMARKS
FARMINGTON     FAIR      68  46  45 W9        30.19F
LOS ALAMOS     MOCLDY    68  40  36 CALM      30.26S
SANTA FE       FAIR      70  35  27 SW13      30.18F
TAOS           FAIR      68  32  26 SW12      30.23F
ANGEL FIRE     FAIR      50  36  57 CALM      30.32F

$$
NMZ402-403-502-505>509-010200-
WESTCENTRAL MOUNTAINS/SOUTHWEST MOUNTAINS

CITY           SKY/WX    TMP DP  RH WIND       PRES   REMARKS
GALLUP         FAIR      66  40  38 SW8       30.25F
SILVER CITY    FAIR      68  56  65 SW5       30.20S

$$
NMZ407-409-411-412-010200-
SOUTHERN DESERTS

CITY           SKY/WX    TMP DP  RH WIND       PRES   REMARKS
DEMING         FAIR      73  57  57 S3        30.14S
LAS CRUCES     FAIR      71  60  67 SW5       30.16S
HOLLOMAN AFB   FAIR      73  60  63 S7        30.11F
ALAMOGORDO     FAIR      70  59  68 S5        30.14F
T OR C         FAIR      73  57  57 S6        30.15S

$$
NMZ519>523-010200-
CENTRAL VALLEYS/CENTRAL HIGHLANDS

CITY           SKY/WX    TMP DP  RH WIND       PRES   REMARKS
ALBUQUERQUE    FAIR      75  41  29 NW14      30.17S
DOUBLE EAGLE   PTCLDY    70  43  37 VRB7      30.21S
CLINES CORNERS FAIR      63  41  44 W10       30.25S
BELEN          FAIR      72  51  48 S5        30.17S
SOCORRO        FAIR      70  60  70 CALM      30.14F

$$
NMZ524>526-539-540-010200-
SOUTHCENTRAL MOUNTAINS

CITY           SKY/WX    TMP DP  RH WIND       PRES   REMARKS
RUIDOSO        FAIR      64  45  48 N3        30.29S

$$
NMZ527>531-010200-
NORTHEAST HIGHLANDS/NORTHEAST PLAINS

CITY           SKY/WX    TMP DP  RH WIND       PRES   REMARKS
LAS VEGAS      CLOUDY    65  42  43 N7        30.19F
RATON          FAIR      65  42  43 NE15      30.16S
CLAYTON        FAIR      67  50  54 S8        30.10F

$$
NMZ532>537-010200-
EASTCENTRAL PLAINS

CITY           SKY/WX    TMP DP  RH WIND       PRES   REMARKS
TUCUMCARI      FAIR      74  48  39 S10       30.06S
CANNON AFB     FAIR      69  50  49 S12       30.12S
CLOVIS AIRPORT FAIR      66  48  52 S10       30.12S

$$
NMZ028-029-538-010200-
SOUTHEAST PLAINS

CITY           SKY/WX    TMP DP  RH WIND       PRES   REMARKS
ROSWELL        FAIR      71  51  49 S10       30.11S
ARTESIA        FAIR      68  55  64 SE7       30.10F
CARLSBAD       FAIR      70  56  61 SE8       30.09F
HOBBS          MOCLDY    68  52  56 S5        30.14F


$$



USA.gov is the U.S. government's official web portal to all federal, state and local government web resources and services.